TimeCST,TemperatureF,Dew PointF,Humidity,Sea Level PressureIn,VisibilityMPH,Wind Direction,Wind SpeedMPH,Gust SpeedMPH,PrecipitationIn,Events,Conditions,WindDirDegrees,DateUTC
12:13 AM,17.6,10.4,73,30.14,10.0,ESE,11.5,-,N/A,,Overcast,120,2013-01-18 06:13:00
12:33 AM,17.6,10.4,73,30.13,10.0,ESE,12.7,-,N/A,,Mostly Cloudy,110,2013-01-18 06:33:00
12:54 AM,17.6,10.4,73,30.09,10.0,SE,13.8,-,N/A,,Scattered Clouds,130,2013-01-18 06:54:00
1:13 AM,17.6,12.2,79,30.06,10.0,SE,13.8,-,N/A,,Scattered Clouds,130,2013-01-18 07:13:00
1:33 AM,19.4,12.2,74,30.05,10.0,SE,15.0,19.6,N/A,,Scattered Clouds,130,2013-01-18 07:33:00
1:53 AM,19.4,14.0,80,30.02,10.0,SE,15.0,19.6,N/A,,Overcast,140,2013-01-18 07:53:00
2:14 AM,19.4,15.8,86,30.04,10.0,SE,10.4,-,N/A,,Scattered Clouds,130,2013-01-18 08:14:00
2:33 AM,21.2,15.8,80,30.02,10.0,ESE,11.5,-,N/A,,Scattered Clouds,120,2013-01-18 08:33:00
2:53 AM,21.2,17.6,86,30.00,10.0,ESE,12.7,-,N/A,,Mostly Cloudy,120,2013-01-18 08:53:00
3:14 AM,21.2,17.6,86,30.00,10.0,ESE,11.5,-,N/A,,Mostly Cloudy,110,2013-01-18 09:14:00
3:33 AM,21.2,17.6,86,29.97,10.0,SE,12.7,17.3,N/A,,Scattered Clouds,130,2013-01-18 09:33:00
3:54 AM,21.2,19.4,93,29.95,10.0,SE,11.5,-,N/A,,Clear,130,2013-01-18 09:54:00
4:13 AM,23.0,19.4,86,29.94,10.0,SE,8.1,-,N/A,,Clear,140,2013-01-18 10:13:00
4:33 AM,24.8,19.4,80,29.92,10.0,SE,8.1,-,N/A,,Clear,130,2013-01-18 10:33:00
4:53 AM,24.8,21.2,86,29.91,10.0,SE,10.4,-,N/A,,Clear,130,2013-01-18 10:53:00
5:13 AM,24.8,21.2,86,29.89,10.0,SE,9.2,-,N/A,,Clear,130,2013-01-18 11:13:00
5:33 AM,24.8,21.2,86,29.88,10.0,SE,8.1,-,N/A,,Clear,130,2013-01-18 11:33:00
5:53 AM,24.8,21.2,86,29.86,10.0,SE,8.1,-,N/A,,Clear,140,2013-01-18 11:53:00
6:13 AM,24.8,21.2,86,29.85,10.0,SE,6.9,-,N/A,,Clear,140,2013-01-18 12:13:00
6:33 AM,26.6,23.0,86,29.83,10.0,SSE,10.4,-,N/A,,Clear,150,2013-01-18 12:33:00
6:53 AM,26.6,23.0,86,29.82,10.0,SSE,8.1,-,N/A,,Clear,150,2013-01-18 12:53:00
7:13 AM,26.6,24.8,93,29.80,10.0,SSE,6.9,-,N/A,,Clear,150,2013-01-18 13:13:00
7:33 AM,26.6,24.8,93,29.79,10.0,SSE,6.9,-,N/A,,Clear,160,2013-01-18 13:33:00
7:53 AM,26.6,24.8,93,29.79,10.0,South,5.8,-,N/A,,Clear,170,2013-01-18 13:53:00
8:13 AM,28.4,24.8,86,29.79,10.0,South,4.6,-,N/A,,Clear,170,2013-01-18 14:13:00
8:33 AM,28.4,24.8,86,29.79,10.0,South,5.8,-,N/A,,Clear,170,2013-01-18 14:33:00
8:53 AM,28.4,24.8,86,29.78,10.0,South,8.1,-,N/A,,Clear,190,2013-01-18 14:53:00
9:13 AM,30.2,24.8,80,29.77,10.0,South,6.9,-,N/A,,Clear,190,2013-01-18 15:13:00
9:33 AM,32.0,24.8,75,29.78,10.0,SSW,4.6,-,N/A,,Clear,210,2013-01-18 15:33:00
9:54 AM,33.8,24.8,70,29.78,10.0,SSW,6.9,-,N/A,,Clear,210,2013-01-18 15:54:00
10:13 AM,33.8,24.8,70,29.78,10.0,SW,8.1,-,N/A,,Clear,220,2013-01-18 16:13:00
10:34 AM,35.6,24.8,65,29.78,10.0,SW,8.1,-,N/A,,Clear,230,2013-01-18 16:34:00
10:53 AM,35.6,24.8,65,29.77,10.0,SW,8.1,-,N/A,,Clear,230,2013-01-18 16:53:00
11:14 AM,35.6,26.6,70,29.77,10.0,WSW,8.1,-,N/A,,Clear,240,2013-01-18 17:14:00
11:34 AM,35.6,26.6,70,29.75,10.0,WSW,10.4,-,N/A,,Clear,240,2013-01-18 17:34:00
11:53 AM,37.4,26.6,65,29.75,10.0,WSW,9.2,-,N/A,,Clear,250,2013-01-18 17:53:00
12:14 PM,37.4,28.4,70,29.74,10.0,West,8.1,-,N/A,,Clear,260,2013-01-18 18:14:00
12:33 PM,37.4,28.4,70,29.73,10.0,West,9.2,-,N/A,,Clear,280,2013-01-18 18:33:00
12:53 PM,37.4,28.4,70,29.74,10.0,WNW,10.4,-,N/A,,Clear,290,2013-01-18 18:53:00
1:13 PM,39.2,28.4,65,29.73,10.0,West,11.5,-,N/A,,Clear,280,2013-01-18 19:13:00
1:34 PM,37.4,28.4,70,29.72,10.0,WNW,11.5,-,N/A,,Clear,290,2013-01-18 19:34:00
1:53 PM,37.4,28.4,70,29.73,10.0,West,10.4,-,N/A,,Clear,270,2013-01-18 19:53:00
2:13 PM,37.4,28.4,70,29.74,10.0,West,10.4,-,N/A,,Clear,280,2013-01-18 20:13:00
2:33 PM,37.4,30.2,75,29.75,10.0,WNW,10.4,-,N/A,,Clear,290,2013-01-18 20:33:00
2:53 PM,37.4,30.2,75,29.75,10.0,West,10.4,-,N/A,,Clear,280,2013-01-18 20:53:00
3:14 PM,37.4,30.2,75,29.75,10.0,West,9.2,-,N/A,,Clear,270,2013-01-18 21:14:00
3:33 PM,37.4,30.2,75,29.76,10.0,West,10.4,-,N/A,,Clear,280,2013-01-18 21:33:00
3:54 PM,37.4,30.2,75,29.76,10.0,West,8.1,-,N/A,,Clear,280,2013-01-18 21:54:00
4:14 PM,37.4,30.2,75,29.77,10.0,West,6.9,-,N/A,,Clear,280,2013-01-18 22:14:00
4:33 PM,35.6,30.2,81,29.77,10.0,West,6.9,-,N/A,,Clear,270,2013-01-18 22:33:00
4:53 PM,35.6,28.4,75,29.77,10.0,West,5.8,-,N/A,,Clear,280,2013-01-18 22:53:00
5:14 PM,33.8,28.4,81,29.77,10.0,West,3.5,-,N/A,,Clear,270,2013-01-18 23:14:00
5:34 PM,30.2,26.6,86,29.78,10.0,West,3.5,-,N/A,,Clear,270,2013-01-18 23:34:00
5:53 PM,30.2,26.6,86,29.79,10.0,Calm,Calm,-,N/A,,Clear,0,2013-01-18 23:53:00
6:14 PM,30.2,26.6,86,29.78,10.0,West,3.5,-,N/A,,Clear,260,2013-01-19 00:14:00
6:34 PM,30.2,26.6,86,29.78,10.0,WSW,4.6,-,N/A,,Clear,250,2013-01-19 00:34:00
6:53 PM,28.4,26.6,93,29.78,10.0,WSW,4.6,-,N/A,,Clear,240,2013-01-19 00:53:00
7:13 PM,30.2,26.6,86,29.78,10.0,SW,5.8,-,N/A,,Clear,230,2013-01-19 01:13:00
7:33 PM,30.2,28.4,93,29.79,10.0,SW,5.8,-,N/A,,Clear,230,2013-01-19 01:33:00
7:53 PM,30.2,28.4,93,29.78,10.0,SW,8.1,-,N/A,,Clear,230,2013-01-19 01:53:00
8:14 PM,33.8,28.4,81,29.78,10.0,SW,6.9,-,N/A,,Clear,220,2013-01-19 02:14:00
8:34 PM,33.8,28.4,81,29.77,10.0,SW,6.9,-,N/A,,Clear,220,2013-01-19 02:34:00
8:54 PM,30.2,26.6,86,29.76,10.0,SW,3.5,-,N/A,,Clear,220,2013-01-19 02:54:00
9:34 PM,28.4,26.6,93,29.76,10.0,Calm,Calm,-,N/A,,Clear,0,2013-01-19 03:34:00
9:54 PM,26.6,24.8,93,29.76,10.0,Calm,Calm,-,N/A,,Clear,0,2013-01-19 03:54:00
10:14 PM,24.8,23.0,93,29.76,10.0,Calm,Calm,-,N/A,,Clear,0,2013-01-19 04:14:00
10:34 PM,26.6,24.8,93,29.75,10.0,Calm,Calm,-,N/A,,Clear,0,2013-01-19 04:34:00
10:53 PM,26.6,24.8,93,29.75,10.0,ESE,3.5,-,N/A,,Clear,110,2013-01-19 04:53:00
11:13 PM,26.6,24.8,93,29.75,10.0,South,3.5,-,N/A,,Clear,180,2013-01-19 05:13:00
11:34 PM,26.6,24.8,93,29.74,10.0,SE,3.5,-,N/A,,Clear,140,2013-01-19 05:34:00
11:54 PM,26.6,26.6,100,29.72,10.0,SSE,6.9,-,N/A,,Clear,160,2013-01-19 05:54:00